Regional Weather Roundup
Issued by NWS Charleston, SC

Current Version | Previous Version | Graphics & Text | Print | Product List | Glossary On
Versions: 1 2 3 4 5 6 7 8 9 10 11 12 13 14 15 16 17 18 19 20 21 22 23 24 25 26 27 28 29 30 31 32 33 34 35 36 37 38 39 40 41 42 43 44 45 46 47 48 49 50
000 ASUS42 KCHS 191412 RWRCHS Regional Weather Roundup National Weather Service Charleston SC 900 AM EST FRI JAN 19 2018 NOTE: "fair" indicates few or no clouds below 12,000 feet with no significant weather and/or obstructions to visibility. Not all stations are quality controlled. Use data with caution, especially dewpoint observations. SCZ027-030-031-034>040-042>050-191500- ...Southeast South Carolina... CITY SKY/WX TMP DP RH WIND PRES REMARKS N Charleston FAIR 37 20 50 SW6 30.30S WCI 32 Waterfront Prk NOT AVBL Mount Pleasant FAIR 37 23 56 SW5 30.30F WCI 34 Johns Island FAIR 39 21 48 SW5 30.31S WCI 36 Pinopolis N/A 34 19 55 SW6 30.21S WCI 29 Moncks Corner FAIR 32 23 69 CALM 30.29S HAZE Summerville FAIR 32 21 64 SW3 30.31S Beaufort MCAS FAIR 38 24 57 SW7 30.33R WCI 33 Beaufort Arpt FAIR 37 25 60 CALM 30.32R Hilton Head Is SUNNY 37 27 65 SW5 30.34R WCI 34 Walterboro FAIR 34 21 60 SW5 30.31S WCI 30 Allendale FAIR 34 18 51 CALM 30.31R ...Southern Midlands and Pee Dee... CITY SKY/WX TMP DP RH WIND PRES REMARKS Georgetown FAIR 36 19 51 SW5 30.30S WCI 32 Kingstree FAIR 32 23 69 CALM 30.28R Orangeburg FAIR 31 20 63 SW3 30.28S Barnwell N/A 34 19 55 SW6 30.29R WCI 29 Aiken FAIR 32 18 55 W8 30.29S WCI 25 Manning FAIR 34 21 60 MISG 30.29R Columbia FAIR 32 22 66 W3 30.28R Sumter FAIR 33 18 54 W6 30.25R WCI 28 Florence FAIR 32 21 64 W6 30.27S WCI 26 Myrtle Beach FAIR 38 20 48 SW6 30.29F WCI 33 N Myrtle Beach FAIR 38 22 52 SW5 30.28R WCI 34 $$ GAZ063-065-086>088-099>101-113>116-118-119-134>141-150-191500- ...Southeast Georgia... CITY SKY/WX TMP DP RH WIND PRES REMARKS Savannah Arpt FAIR 35 21 56 W7 30.35R WCI 29 Hunter AAF FAIR 35 23 62 W6 30.32R WCI 30 Fort Stewart FAIR 36 20 52 W3 30.32S Statesboro FAIR 35 17 49 W5 30.32S WCI 31 Sylvania FAIR 34 21 59 W6 30.32S WCI 29 Claxton FAIR 35 22 59 SW3 30.34R ...CSRA, Central and far Southeast Georgia... CITY SKY/WX TMP DP RH WIND PRES REMARKS Thomson FAIR 31 15 50 NW5 30.33R WCI 27 Augusta-Bush FAIR 30 21 69 S3 30.29S Augusta-Daniel FAIR 36 15 42 VRB3 30.28R Swainsboro FAIR 32 21 64 W5 30.33S WCI 27 Vidalia FAIR 34 23 64 W5 30.33S WCI 30 Eastman FAIR 33 15 46 CALM 30.37S Hazlehurst FAIR 35 10 34 CALM 30.33S Alma FAIR 34 22 61 NW5 30.35R WCI 30 Waycross FAIR 34 22 62 CALM 30.36R Jesup FAIR 36 21 55 CALM 30.36R Baxley FAIR 32 21 64 CALM 30.34S Brunswick FAIR 34 25 69 CALM 30.37R Saint Simons FAIR 38 28 67 W6 30.36R WCI 33 $$ SCZ027-028-034-036>038-045-046-048>050-GAZ119-141-191500- ...Lake and Supplemental Coastal Observations... STATION/POSITION TIME TEMP WIND PRES WAVE SWELL AIR SEA DIR/SP/G HT/PER HT/PER/DIR (UTC) (F) (DEG/KT/KT) (MB) (FT/S) (FT/S/D) Winyah Bay NOT AVBL Lake Murray 1320 34 280/ 3/ 6 1023.7 ACE Basin NERRS 1245 28 CALM 1026.0 Fort Pulaski 1336 36 44 240/ 4/ 5 1027.4R Sapelo Island 1300 35 280/ 2 1027.0 $$ ANZ835-935-AMZ111-154-330-350-352-354-370-450-454-472-191500- ...C-MAN and Buoy Observations... STATION/POSITION TIME TEMP WIND PRES WAVE SWELL AIR SEA DIR/SP/G HT/PER HT/PER/DIR (UTC) (F) (DEG/KT/KT) (MB) (FT/S) (FT/S/D) Buoy 41004 1350 53 70 250/ 12/ 16 1025.9R 2/11 2/110/11 Buoy 41008 1350 44 51 270/ 10/ 12 1027.4R 2/11 2/ 50/11 Folly Beach CMAN 1300 36 230/ 5/ 6 1026.6F Capers Nearshore 1308 40 48 260/ 8/ 14 1025.8F Fripp Nearshore 1308 42 45 270/ 6/ 10 1025.6F STATION/POSITION TIME TEMP WIND PRES WAVE SWELL AIR SEA DIR/SP/G HT/PER HT/PER/DIR (UTC) (F) (DEG/KT/KT) (MB) (FT/S) (FT/S/D) 5E St. Marys GA 1330 48 N/A 2/11 2/ 80/11 Frying Pan Buoy 1350 51 65 250/ 12/ 16 1024.9S 3/11 2/120/11 Buoy 41025 1350 46 280/ 14/ 17 1023.7R 6/11 5/ 60/11 Cape Lookout NC 1300 280/ 15/ 17 1024.0R Buoy 41002 1350 59 70 310/ 8/ 12 1025.1R 9/11 8/ 30/11 Buoy 41010 NOT AVBL St Augustine FL 1400 41 48 300/ 5/ 6 1028.7R $$

USA.gov is the U.S. government's official web portal to all federal, state and local government web resources and services.